, LA

(GMT )
Atlantis

Weather History for KATP - December, 2013

Change the Weather History Date:

Wednesday, December 11, 2013

  Actual Average Record
Temperature  
Mean Temperature 68 °F -  
Max Temperature 71 °F - - ()
Min Temperature 66 °F - - ()
Cooling Degree Days 4    
Growing Degree Days 18 (Base 50)    
Moisture  
Dew Point 60 °F    
Average Humidity 71    
Maximum Humidity 78    
Minimum Humidity 64    
Precipitation  
Precipitation 0.00 in - - ()
Sea Level Pressure  
Sea Level Pressure 30.32 in    
Wind  
Wind Speed 13 mph (NNE)    
Max Wind Speed 18 mph    
Max Gust Speed 23 mph    
Visibility 6 miles    
Events      
T = Trace of Precipitation, MM = Missing Value Source: NWS Daily Summary

Daily Weather History Graph

Daily Weather History Graph

Search for Another Location

Airport or City:

Trip Planner

Search our weather history database for the weather conditions in past years. The results will help you decide how hot, cold, wet, or windy it might be!

Date:

Astronomy

Dec. 11, 2013 Rise Set
Actual Time 6:39 AM CST 5:07 PM CST
Civil Twilight 6:14 AM CST 5:32 PM CST
Nautical Twilight 5:45 AM CST 6:01 PM CST
Astronomical Twilight 5:16 AM CST 6:30 PM CST
Moon 1:19 PM CST (12/11) 1:25 AM CST (12/11)
Length of Visible Light 11h 18m
Length of Day
10h 27m
Waxing Gibbous, 72% of the Moon is Illuminated
Dec 11
Waxing Gibbous
Dec 17
Full
Dec 25
Last Quarter
Jan 1
New
Jan 7
First Quarter

Hourly Weather History & Observations

Time (CST) Temp. Dew Point Humidity Pressure Visibility Wind Dir Wind Speed Gust Speed Precip Events Conditions
12:15 AM 66.2 °F 57.2 °F 73% 30.29 in 6.0 mi East 18.4 mph - N/A   Haze
12:35 AM 66.2 °F 57.2 °F 73% 30.30 in 6.0 mi East 17.3 mph - N/A   Haze
12:55 AM 66.2 °F 57.2 °F 73% 30.29 in 6.0 mi East 16.1 mph 21.9 mph N/A   Haze
1:15 AM 66.2 °F 57.2 °F 73% 30.29 in 6.0 mi East 17.3 mph - N/A   Haze
1:35 AM 66.2 °F 57.2 °F 73% 30.28 in 6.0 mi East 16.1 mph - N/A   Haze
1:55 AM 66.2 °F 57.2 °F 73% 30.27 in 6.0 mi East 15.0 mph - N/A   Haze
2:15 AM 66.2 °F 57.2 °F 73% 30.27 in 5.0 mi East 15.0 mph - N/A   Haze
2:35 AM 68.0 °F 59.0 °F 73% 30.27 in 6.0 mi East 11.5 mph - N/A   Haze
2:55 AM 68.0 °F 59.0 °F 73% 30.27 in 6.0 mi East 11.5 mph - N/A   Haze
3:15 AM 68.0 °F 59.0 °F 73% 30.27 in 6.0 mi East 11.5 mph - N/A   Haze
3:35 AM 68.0 °F 59.0 °F 73% 30.27 in 6.0 mi East 12.7 mph - N/A   Haze
3:55 AM 68.0 °F 59.0 °F 73% 30.27 in 7.0 mi East 11.5 mph - N/A   Overcast
4:15 AM 68.0 °F 59.0 °F 73% 30.27 in 6.0 mi East 13.8 mph - N/A   Haze
4:35 AM 68.0 °F 59.0 °F 73% 30.27 in 6.0 mi East 12.7 mph - N/A   Haze
4:55 AM 68.0 °F 59.0 °F 73% 30.27 in 6.0 mi East 11.5 mph - N/A   Haze
5:15 AM 68.0 °F 60.8 °F 78% 30.28 in 5.0 mi ENE 9.2 mph - N/A   Haze
5:35 AM 69.8 °F 60.8 °F 73% 30.28 in 6.0 mi East 9.2 mph - N/A   Haze
5:55 AM 69.8 °F 60.8 °F 73% 30.29 in 6.0 mi ENE 9.2 mph - N/A   Haze
6:15 AM 69.8 °F 60.8 °F 73% 30.29 in 6.0 mi East 9.2 mph - N/A   Haze
6:35 AM 69.8 °F 60.8 °F 73% 30.30 in 6.0 mi ENE 9.2 mph - N/A   Haze
6:55 AM 69.8 °F 60.8 °F 73% 30.31 in 6.0 mi NE 9.2 mph - N/A   Haze
7:15 AM 69.8 °F 60.8 °F 73% 30.32 in 6.0 mi NE 8.1 mph - N/A   Haze
7:35 AM 69.8 °F 60.8 °F 73% 30.32 in 6.0 mi NE 6.9 mph - N/A   Haze
7:55 AM 69.8 °F 60.8 °F 73% 30.33 in 6.0 mi NE 8.1 mph - N/A   Haze
8:15 AM 69.8 °F 60.8 °F 73% 30.33 in 6.0 mi NE 10.4 mph - N/A   Haze
8:35 AM 69.8 °F 60.8 °F 73% 30.34 in 6.0 mi NNE 9.2 mph - N/A   Haze
8:55 AM 69.8 °F 60.8 °F 73% 30.35 in 6.0 mi NE 10.4 mph - N/A   Haze
9:15 AM 69.8 °F 60.8 °F 73% 30.36 in 6.0 mi NNE 9.2 mph - N/A   Haze
9:35 AM 69.8 °F 60.8 °F 73% 30.36 in 6.0 mi North 9.2 mph - N/A   Haze
9:55 AM 69.8 °F 60.8 °F 73% 30.36 in 6.0 mi NNE 9.2 mph - N/A   Haze
10:15 AM 69.8 °F 60.8 °F 73% 30.36 in 6.0 mi North 10.4 mph - N/A   Haze
10:35 AM 71.6 °F 60.8 °F 69% 30.35 in 6.0 mi NE 9.2 mph - N/A   Haze
10:55 AM 69.8 °F 60.8 °F 73% 30.35 in 6.0 mi NNE 10.4 mph - N/A   Haze
11:15 AM 69.8 °F 60.8 °F 73% 30.34 in 6.0 mi NE 10.4 mph - N/A   Haze
11:35 AM 69.8 °F 60.8 °F 73% 30.34 in 6.0 mi NE 10.4 mph - N/A   Haze
11:55 AM 69.8 °F 60.8 °F 73% 30.33 in 6.0 mi NE 11.5 mph - N/A   Haze
12:15 PM 69.8 °F 60.8 °F 73% 30.33 in 6.0 mi NNE 11.5 mph - N/A   Haze
12:35 PM 69.8 °F 60.8 °F 73% 30.32 in 6.0 mi NNE 10.4 mph - N/A   Haze
12:55 PM 71.6 °F 60.8 °F 69% 30.31 in 6.0 mi NNE 9.2 mph - N/A   Haze
1:15 PM 71.6 °F 60.8 °F 69% 30.31 in 7.0 mi NNE 10.4 mph - N/A   Overcast
1:35 PM 71.6 °F 60.8 °F 69% 30.30 in 6.0 mi North 11.5 mph - N/A   Haze
1:55 PM 71.6 °F 60.8 °F 69% 30.30 in 6.0 mi North 11.5 mph - N/A   Haze
2:15 PM 71.6 °F 60.8 °F 69% 30.29 in 7.0 mi NNW 12.7 mph - N/A   Mostly Cloudy
2:35 PM 71.6 °F 59.0 °F 64% 30.29 in 7.0 mi North 12.7 mph - N/A   Mostly Cloudy
2:55 PM 71.6 °F 59.0 °F 64% 30.29 in 7.0 mi North 11.5 mph - N/A   Mostly Cloudy
3:15 PM 71.6 °F 59.0 °F 64% 30.29 in 6.0 mi North 13.8 mph - N/A   Haze
3:35 PM 71.6 °F 59.0 °F 64% 30.30 in 7.0 mi North 11.5 mph - N/A   Clear
3:55 PM 71.6 °F 59.0 °F 64% 30.30 in - North 12.7 mph - N/A   Partly Cloudy
4:15 PM 69.8 °F 60.8 °F 73% 30.30 in 6.0 mi NNE 12.7 mph - N/A   Haze
4:35 PM 69.8 °F 59.0 °F 68% 30.32 in 6.0 mi North 12.7 mph - N/A   Haze
4:55 PM 69.8 °F 60.8 °F 73% 30.32 in 7.0 mi North 12.7 mph - N/A   Scattered Clouds
5:15 PM 69.8 °F 60.8 °F 73% 30.32 in 7.0 mi North 15.0 mph - N/A   Mostly Cloudy
5:35 PM 69.8 °F 59.0 °F 68% 30.32 in 7.0 mi North 15.0 mph - N/A   Partly Cloudy
5:55 PM 69.8 °F 59.0 °F 68% 30.33 in 7.0 mi NNE 13.8 mph - N/A   Scattered Clouds
6:15 PM 69.8 °F 59.0 °F 68% 30.33 in 5.0 mi NNE 15.0 mph - N/A   Haze
6:35 PM 69.8 °F 60.8 °F 73% 30.34 in 6.0 mi North 17.3 mph - N/A   Haze
6:55 PM 69.8 °F 60.8 °F 73% 30.35 in 6.0 mi North 17.3 mph - N/A   Haze
7:15 PM 69.8 °F 59.0 °F 68% 30.35 in 6.0 mi North 16.1 mph - N/A   Haze
7:35 PM 69.8 °F 59.0 °F 68% 30.36 in 7.0 mi North 17.3 mph - N/A   Mostly Cloudy
7:55 PM 69.8 °F 59.0 °F 68% 30.37 in 7.0 mi North 18.4 mph - N/A   Overcast
8:15 PM 69.8 °F 59.0 °F 68% 30.37 in 7.0 mi North 17.3 mph 23.0 mph N/A   Overcast
8:35 PM 69.8 °F 59.0 °F 68% 30.38 in 7.0 mi North 18.4 mph - N/A   Overcast
8:55 PM 69.8 °F 59.0 °F 68% 30.39 in 7.0 mi North 17.3 mph - N/A   Overcast
9:15 PM 69.8 °F 59.0 °F 68% 30.39 in 6.0 mi North 16.1 mph - N/A   Haze
9:35 PM 69.8 °F 59.0 °F 68% 30.39 in 6.0 mi North 16.1 mph - N/A   Haze
9:55 PM 69.8 °F 59.0 °F 68% 30.38 in 7.0 mi NNE 16.1 mph - N/A   Mostly Cloudy
10:15 PM 68.0 °F 59.0 °F 73% 30.38 in 7.0 mi NNE 15.0 mph - N/A   Mostly Cloudy
10:35 PM 68.0 °F 59.0 °F 73% 30.39 in 6.0 mi North 13.8 mph - N/A   Haze
10:55 PM 69.8 °F 60.8 °F 73% 30.39 in 7.0 mi North 17.3 mph - N/A   Mostly Cloudy
11:15 PM 69.8 °F 60.8 °F 73% 30.39 in 6.0 mi North 15.0 mph - N/A   Haze
11:35 PM 69.8 °F 57.2 °F 64% 30.38 in 7.0 mi NE 12.7 mph 18.4 mph N/A   Mostly Cloudy
11:55 PM 69.8 °F 57.2 °F 64% 30.38 in 7.0 mi NNE 11.5 mph - N/A   Scattered Clouds